Wind_Speed
16 16 17 17 17 17 18 18 18 18 18 18 18 18 18 18 18 18 17 16 17 17 17 16 15 14 13 12 11 12 12 11 11 8 6 9 13 17 21 23 23 25 24 24 26 27 29 29 27 25 23 21 19 17 16 14 14 11 9 11 10 8 7 8 7 5 3 2 1 6 10 10 10 11 12 12 11 11 9 9 11 12 13 11 12 15 15 22
15 16 16 16 17 17 17 17 18 18 17 18 18 18 18 18 19 19 18 17 17 18 18 17 16 14 13 13 12 12 11 12 9 5 8 13 13 15 21 24 24 24 24 23 24 25 26 27 27 25 24 22 19 18 17 14 14 11 11 12 8 8 9 8 7 6 3 2 1 5 8 8 9 10 10 11 11 12 11 11 13 14 16 14 15 17 16 21
15 15 15 16 16 17 17 18 18 18 18 18 18 18 18 18 18 18 18 18 18 18 18 18 17 15 14 13 12 12 11 12 8 5 12 12 8 12 18 24 24 22 21 20 20 20 20 23 25 25 24 23 21 20 18 16 14 11 12 12 9 9 9 8 7 5 4 4 4 5 7 8 9 10 9 10 11 11 10 8 8 11 15 16 16 18 18 21
15 15 15 16 17 17 18 18 19 19 19 19 19 18 18 18 18 18 18 18 18 18 19 19 18 17 15 14 12 12 11 12 9 9 15 12 8 12 16 22 23 21 22 21 21 20 20 23 26 26 26 25 24 23 21 18 15 12 11 12 12 11 9 8 8 6 4 6 6 4 5 8 9 9 9 9 8 7 8 6 3 4 12 15 15 17 18 21
15 15 16 17 17 18 18 19 19 19 19 19 19 19 18 18 18 18 18 18 18 18 18 19 19 17 16 15 13 12 11 10 9 10 14 12 12 14 15 19 22 23 24 24 24 24 25 28 29 29 29 28 27 27 24 19 16 13 11 13 14 11 9 10 9 6 5 7 7 4 2 5 8 8 9 8 5 4 5 5 1 3 9 13 14 15 18 21
15 16 17 17 18 18 18 18 19 19 20 20 20 20 19 19 18 18 18 18 18 17 18 18 19 18 17 17 14 12 10 9 9 11 12 12 14 15 15 17 21 24 26 25 26 27 28 31 33 34 33 31 29 27 23 19 17 14 14 17 15 12 11 11 10 8 7 8 6 3 1 3 5 6 7 6 4 5 7 6 2 5 8 10 14 15 17 21
16 17 18 18 18 18 18 18 18 18 19 20 20 20 20 19 19 18 18 18 18 17 18 18 19 18 18 17 16 14 10 10 13 11 10 10 12 14 15 17 21 25 26 27 27 28 30 32 34 34 33 32 30 26 22 21 18 14 17 20 16 13 12 11 11 10 10 9 5 4 5 4 3 4 4 4 5 5 6 6 4 6 8 11 14 14 16 19
18 18 19 19 19 18 19 18 18 18 18 19 20 21 20 19 19 19 18 18 18 18 17 18 18 18 18 18 17 15 11 13 15 11 11 12 12 13 14 17 21 25 26 26 25 26 27 30 33 33 34 32 28 25 22 22 20 16 19 19 15 15 14 12 12 12 11 10 9 9 10 7 5 4 4 2 4 7 7 6 6 6 8 12 14 14 15 19
20 20 21 21 20 19 19 19 19 19 19 19 20 21 21 19 19 19 19 19 19 19 18 18 18 18 18 18 18 17 13 13 14 12 13 17 17 15 14 16 20 25 25 24 24 25 26 27 29 30 32 30 27 25 24 24 22 17 18 17 15 16 16 13 12 12 11 10 11 13 13 10 6 7 7 4 6 6 8 8 7 6 8 11 12 14 15 18
21 21 21 21 21 20 20 20 20 21 20 20 20 22 22 20 20 20 20 20 19 19 19 18 18 18 17 18 18 17 14 14 14 13 15 18 19 17 16 16 20 24 24 24 26 26 25 23 22 25 27 26 26 26 26 26 23 18 17 17 17 18 18 15 14 14 11 10 12 14 16 13 9 10 10 7 8 8 8 10 8 7 7 9 12 15 16 17
21 22 22 22 21 21 21 21 22 22 22 21 21 22 23 22 21 21 21 21 21 20 19 18 18 18 17 17 18 17 15 15 15 15 16 19 19 17 16 17 20 22 23 24 24 23 21 19 18 21 25 26 27 28 29 27 21 19 19 20 21 19 19 18 16 15 11 12 13 14 15 15 16 15 12 9 9 7 9 10 9 8 7 9 11 15 18 18
21 22 22 22 22 22 22 22 22 22 22 22 22 23 23 23 23 22 22 22 22 21 20 19 18 17 18 16 16 17 17 17 16 15 17 19 19 18 17 18 20 20 21 20 19 18 17 18 19 21 24 26 28 27 28 27 22 21 21 22 23 21 22 22 19 16 13 14 12 11 14 20 24 18 11 11 11 8 9 10 9 9 9 9 11 15 19 20
22 22 23 23 23 22 22 22 23 23 23 22 22 24 24 24 24 23 23 23 23 23 21 19 18 17 17 14 14 17 18 18 17 16 18 19 19 18 18 20 22 20 20 17 15 14 15 17 18 20 22 24 27 26 25 27 26 24 22 23 23 22 24 24 20 18 16 16 12 11 18 24 25 18 12 13 14 12 11 11 11 11 11 11 11 15 20 21
22 23 23 24 23 23 23 23 23 24 24 23 24 25 24 24 25 25 24 24 26 25 22 20 19 18 17 13 14 17 17 18 19 19 19 19 20 20 20 23 25 23 22 20 16 15 15 17 18 20 22 23 26 26 23 25 29 28 23 23 24 23 24 24 20 19 17 15 13 14 22 23 20 17 16 15 15 14 12 12 13 13 14 13 13 14 19 23
23 23 24 24 24 24 23 24 24 24 25 25 25 26 25 25 25 25 24 25 27 26 23 22 20 19 17 14 15 17 17 19 21 21 20 21 22 22 21 23 27 26 23 21 20 19 17 18 21 22 24 25 26 25 24 24 29 31 24 22 26 25 24 26 21 20 18 15 14 16 22 23 18 18 17 16 17 17 14 13 14 14 15 15 15 15 18 22
23 23 24 25 25 24 24 25 25 25 26 25 26 27 26 24 24 24 23 25 27 25 24 22 19 18 17 16 15 16 20 22 22 21 21 23 24 24 23 24 28 28 26 24 23 22 20 20 22 22 23 27 28 26 26 25 27 30 27 24 26 26 26 25 22 22 19 14 15 19 23 23 19 19 19 18 18 19 17 16 16 16 15 16 17 16 17 21
23 24 24 26 26 25 25 26 26 27 27 26 26 27 26 24 23 22 21 24 24 23 21 19 17 15 15 16 15 16 22 25 24 23 23 24 26 26 25 26 29 30 28 26 25 24 23 24 24 24 25 29 31 28 26 28 29 30 30 27 24 25 27 26 22 21 19 16 16 19 24 26 22 20 21 20 19 19 19 18 18 17 16 16 18 18 18 21
23 24 24 25 27 26 26 27 27 27 27 27 26 26 26 25 23 20 19 20 20 19 17 15 14 10 9 13 14 17 23 27 27 25 25 26 27 26 26 26 29 31 30 28 28 28 27 27 27 26 28 30 34 35 32 34 36 33 31 29 26 25 28 29 23 19 18 17 17 18 23 28 28 25 23 20 20 20 20 18 17 17 17 17 18 19 19 21
23 24 24 25 27 27 27 27 28 27 28 27 26 26 25 23 21 18 15 16 16 15 14 13 13 10 9 13 15 17 21 27 29 28 28 29 29 28 27 27 29 31 32 33 32 32 31 31 31 32 35 36 38 42 40 36 34 31 29 28 27 27 29 31 26 18 14 13 16 19 22 24 28 30 28 24 22 21 21 20 19 19 19 19 20 20 20 21
25 25 25 26 27 28 28 28 29 29 29 28 26 25 23 21 19 15 10 12 15 14 12 11 12 12 13 15 16 18 19 24 28 30 32 31 31 32 31 30 31 33 35 36 36 35 34 35 39 42 42 40 39 41 41 36 30 27 24 24 25 26 29 31 28 22 15 14 16 18 20 22 26 30 31 29 25 22 23 23 22 21 21 21 21 21 20 18
26 25 26 27 28 29 28 29 29 28 29 29 27 25 23 21 20 17 13 10 12 13 10 9 10 13 15 16 17 17 16 21 24 29 34 34 33 34 34 34 35 37 37 36 36 36 35 39 45 46 42 37 36 38 39 37 33 27 22 20 21 23 28 29 29 26 19 17 18 17 21 24 25 28 31 31 29 26 25 24 22 21 21 22 22 22 20 17
27 27 27 27 27 28 28 28 27 27 27 27 26 24 22 22 20 19 19 15 11 12 11 9 10 13 16 17 17 16 13 17 20 24 31 35 36 36 36 37 38 38 37 37 37 36 38 45 48 44 40 37 34 36 40 39 36 32 25 21 22 22 25 28 29 26 21 19 19 17 22 25 24 27 30 32 32 29 26 25 23 21 22 23 22 22 22 20
28 28 27 27 26 26 26 26 25 24 24 24 24 23 21 21 19 18 20 19 15 13 12 11 11 14 17 17 15 13 9 12 17 20 27 32 36 37 37 39 39 37 39 42 42 40 41 46 47 42 38 37 36 36 38 39 37 37 33 28 27 25 23 25 27 25 22 22 21 17 20 23 24 28 33 33 32 30 28 27 26 25 25 23 21 20 22 22
28 28 28 26 25 25 25 24 23 22 21 22 21 21 21 20 19 18 18 20 17 13 11 11 11 13 15 16 15 10 5 10 18 21 25 29 32 35 38 39 38 39 42 44 44 44 44 40 37 40 40 36 37 37 38 40 39 38 37 35 33 28 24 23 22 20 21 22 22 18 18 21 24 28 33 35 34 33 32 31 30 30 29 25 23 22 23 23
29 28 28 27 25 24 25 24 23 22 21 21 20 20 20 18 17 17 18 19 15 10 10 11 11 11 11 13 14 8 4 8 17 22 23 28 31 33 36 38 39 41 42 43 42 43 46 36 22 28 40 39 36 39 40 40 38 37 39 38 35 30 26 24 21 17 17 18 18 16 13 18 24 26 28 32 34 36 35 34 34 32 31 29 26 25 24 25
30 28 28 28 26 24 25 24 23 22 22 20 19 19 18 17 15 15 17 17 12 9 10 11 10 11 11 11 11 7 4 6 13 19 21 27 33 33 34 36 39 41 40 40 39 39 44 40 21 14 28 38 38 39 41 41 36 35 40 40 35 33 29 25 23 19 15 15 16 13 9 14 22 25 25 29 32 35 35 35 34 34 34 33 30 28 25 25
31 29 28 29 28 26 25 25 24 23 23 21 19 18 16 14 13 13 14 11 8 7 8 9 10 12 14 12 9 7 2 2 9 13 16 24 31 33 34 34 36 39 39 36 34 37 41 41 29 12 15 31 40 41 41 41 38 38 42 39 33 32 31 29 27 23 21 20 19 16 12 13 22 27 24 23 28 32 35 36 35 36 35 33 32 31 30 27
31 29 28 28 27 25 24 24 23 23 23 21 21 19 16 13 11 10 7 3 4 8 8 9 11 12 12 9 8 5 4 5 5 9 13 19 27 32 34 32 31 32 37 37 34 35 38 41 37 23 16 25 37 42 42 41 41 41 35 30 32 31 28 30 28 28 27 23 24 27 21 11 18 31 29 22 27 31 33 36 35 36 34 32 32 31 32 30
31 29 27 26 25 23 22 22 22 21 21 19 19 18 15 12 11 7 1 1 4 8 10 10 11 12 10 7 8 5 4 8 7 8 12 14 22 29 31 30 29 26 29 36 36 35 34 35 36 31 27 26 27 32 39 41 42 40 25 15 24 28 26 26 25 28 27 20 25 34 30 13 13 32 35 25 28 32 33 35 34 34 33 31 31 30 30 31
31 28 26 24 22 20 19 19 20 21 20 17 15 16 14 12 9 4 1 2 6 8 12 13 12 14 14 10 10 8 7 7 7 8 9 11 16 25 28 28 28 26 24 28 32 36 34 27 29 35 37 33 23 19 29 38 40 40 29 16 16 19 22 23 23 25 18 14 28 37 32 18 12 29 39 33 35 35 32 35 34 33 33 32 32 31 31 31
31 28 25 23 21 19 17 15 16 18 18 16 13 13 13 10 7 1 2 4 8 11 14 15 14 15 16 14 10 9 7 6 7 7 5 8 13 20 24 24 26 27 26 27 28 32 33 27 25 31 35 36 30 21 21 26 33 37 31 22 18 15 16 19 20 22 12 10 27 35 31 23 17 30 42 38 38 37 32 35 34 33 34 32 32 33 32 31
31 28 25 22 19 18 17 16 16 15 15 13 10 11 10 7 3 2 3 6 6 11 15 17 19 18 17 16 14 12 9 6 6 7 6 1 7 14 15 15 21 24 24 26 27 28 32 33 29 24 25 29 33 32 26 22 28 34 30 24 19 10 9 11 10 12 9 9 22 28 22 22 26 38 45 40 38 38 35 35 34 32 32 32 31 33 32 30
30 27 25 22 18 16 16 16 16 14 13 11 8 7 7 5 2 1 5 6 5 11 16 17 19 18 16 15 13 12 9 7 6 6 8 5 4 10 11 9 13 19 19 17 19 24 26 30 33 28 24 24 29 35 36 30 28 33 34 30 21 8 4 8 5 5 8 10 21 27 19 16 23 36 46 46 41 39 36 34 31 30 31 32 32 32 33 31
29 26 24 21 18 16 15 16 16 13 12 11 6 4 6 3 1 2 5 7 7 10 14 16 16 15 13 11 11 11 9 7 7 6 6 1 4 8 9 9 7 11 16 11 11 17 16 18 29 35 30 26 27 31 33 33 32 32 34 35 29 18 9 6 4 4 5 6 16 25 17 8 12 26 42 48 44 39 35 32 29 29 29 28 29 33 36 36
28 26 23 19 17 16 16 15 15 12 10 10 6 2 3 2 3 4 5 6 7 9 11 14 14 13 10 9 10 11 9 7 7 7 7 3 4 7 5 4 3 5 12 10 8 11 14 17 24 33 35 29 26 27 27 30 33 32 32 34 35 33 24 10 5 7 6 4 10 19 16 7 9 22 35 42 45 42 37 32 30 30 28 24 25 32 37 40
26 25 22 18 16 17 17 15 14 11 8 7 4 1 4 3 2 3 4 4 5 8 11 11 11 11 10 9 11 12 10 8 7 6 6 5 5 8 9 7 6 3 6 6 4 3 9 19 22 25 35 36 28 27 28 28 28 27 32 38 38 37 32 18 9 10 9 5 8 17 20 16 15 23 31 36 41 42 39 35 33 31 28 24 24 28 32 38
26 23 21 18 17 17 17 15 14 10 5 4 1 5 6 2 1 3 3 3 3 7 10 9 9 9 9 10 13 15 13 10 9 7 4 3 3 6 9 8 8 8 6 4 1 3 8 18 23 20 29 39 35 30 30 30 28 25 30 38 34 28 28 25 13 8 8 5 5 14 21 18 16 20 28 34 38 40 38 35 33 32 30 27 27 27 29 34
27 24 21 20 20 19 17 15 14 10 6 3 2 6 6 2 2 4 5 3 3 5 7 7 6 7 8 10 11 13 15 12 11 8 4 3 2 4 7 5 5 7 8 5 2 3 9 13 21 21 23 32 37 34 29 28 30 27 27 30 28 22 22 27 18 7 7 5 3 9 16 17 20 22 25 30 36 39 39 35 33 32 32 31 30 28 28 31
27 23 21 21 21 20 17 15 13 9 6 5 4 7 5 2 1 4 5 4 3 3 4 5 5 5 7 9 9 10 12 11 11 9 4 4 4 3 6 5 2 4 6 5 4 3 5 6 14 21 21 22 29 34 33 29 29 30 29 26 27 26 24 28 26 14 7 3 3 5 8 13 22 25 24 28 34 37 38 37 35 32 31 32 31 29 29 30
24 20 20 22 22 20 18 14 12 8 6 6 7 9 7 4 2 2 3 4 3 2 2 3 4 4 6 7 7 8 9 9 10 9 5 5 5 5 6 6 5 5 6 5 5 5 3 4 9 19 20 17 20 29 34 32 28 32 35 28 27 28 23 23 28 27 17 5 2 3 4 12 21 23 23 25 29 35 37 37 37 34 30 30 30 28 28 29
23 19 17 20 22 20 16 13 10 8 5 6 8 10 9 7 4 1 1 2 2 3 3 2 3 5 6 6 6 7 7 7 7 6 5 5 6 6 7 9 10 10 9 7 6 7 5 5 11 17 18 17 19 23 27 28 26 29 30 27 29 29 23 15 15 26 29 17 9 5 5 14 20 18 20 21 21 29 34 35 37 35 32 31 30 27 26 27
23 20 18 20 21 17 14 12 9 7 5 6 9 10 10 9 7 6 4 4 3 4 4 4 5 6 5 5 5 6 6 6 5 4 4 5 6 6 8 11 12 12 12 11 9 7 7 7 11 19 22 21 22 21 19 20 22 23 21 23 28 28 26 19 10 17 27 25 23 16 11 21 26 18 15 17 17 21 26 30 32 30 28 29 30 28 26 25
23 21 18 20 19 15 14 13 7 5 5 7 9 9 10 10 9 9 9 8 7 7 7 7 6 5 4 4 4 6 7 6 4 4 6 8 7 7 9 12 12 12 12 10 7 5 5 6 8 17 23 25 24 18 14 15 16 19 18 20 25 24 24 22 15 15 20 23 24 16 11 27 34 25 18 15 16 19 21 24 26 25 24 25 26 27 27 26
22 20 19 20 19 14 15 15 8 5 5 7 9 9 10 11 11 10 10 10 8 7 7 6 5 5 4 4 6 8 9 6 4 5 8 9 9 10 10 11 12 12 11 8 8 7 4 4 7 9 10 15 18 15 15 16 14 15 14 16 21 23 24 25 22 17 16 23 26 16 14 27 30 26 26 20 17 20 21 23 27 27 27 27 27 28 28 28
22 20 20 22 20 15 17 18 12 8 7 7 8 9 11 11 10 10 9 8 6 7 7 6 5 5 6 6 8 9 9 7 6 7 8 8 11 11 10 11 12 12 9 7 9 11 8 6 8 5 0 5 10 7 6 9 10 11 12 15 17 17 19 22 20 15 15 23 29 25 25 30 22 18 23 22 20 21 19 20 25 29 32 32 30 29 30 32
23 20 20 23 20 16 19 18 13 10 8 8 8 8 10 9 8 9 9 8 7 8 8 7 7 8 9 10 11 10 10 9 7 7 8 10 11 11 9 10 12 12 10 8 9 10 9 9 11 11 11 13 14 12 11 14 15 14 13 15 15 11 12 12 13 17 18 19 26 34 37 34 27 25 25 24 25 24 19 17 18 23 28 27 23 23 26 31
24 21 21 21 18 17 18 15 12 10 8 7 7 6 7 6 5 5 7 8 9 10 10 9 10 11 11 12 12 11 10 10 9 9 10 10 10 10 11 10 10 12 12 9 9 10 9 11 13 15 18 19 21 23 17 15 18 20 18 16 16 11 10 13 17 23 20 15 21 33 38 39 41 39 33 31 32 31 29 26 22 22 26 24 23 26 28 29
23 22 21 20 19 20 19 14 10 9 7 6 6 5 6 6 4 4 5 8 9 9 10 10 10 11 11 12 13 12 12 12 11 10 10 10 11 12 12 10 9 10 10 10 9 8 9 12 14 16 19 19 22 22 17 15 19 21 19 18 16 14 14 18 22 24 24 22 23 25 30 39 47 44 35 32 31 30 30 28 27 28 30 30 31 33 31 29
23 22 21 21 21 21 19 13 9 7 6 5 5 6 6 7 6 6 5 7 7 8 10 11 11 12 12 12 13 13 13 13 12 13 13 13 14 13 12 11 10 10 10 9 8 7 10 12 11 14 20 22 21 19 15 14 17 20 19 14 14 17 19 21 23 24 27 29 28 27 31 41 46 43 38 34 30 29 28 26 26 26 27 29 30 31 30 33
22 21 22 22 22 20 16 10 7 7 6 6 6 6 7 7 7 7 7 8 8 9 11 12 13 13 12 12 13 12 12 12 13 15 15 16 16 14 13 13 12 12 12 10 6 6 10 10 8 11 19 22 20 17 13 11 14 18 18 11 12 17 20 21 22 24 26 28 32 36 40 44 45 41 39 37 34 31 29 27 26 25 24 26 28 28 29 34
21 21 21 22 22 19 12 7 6 7 7 6 6 7 7 8 8 8 8 8 7 9 10 11 11 11 10 11 12 12 12 13 15 16 16 18 18 16 16 16 15 15 15 12 9 9 11 13 12 11 16 20 18 15 12 11 14 16 15 10 10 12 14 15 17 22 26 28 33 40 44 46 45 40 39 40 38 34 31 28 26 23 23 24 24 24 26 30
20 20 20 21 21 16 8 6 7 6 6 6 6 6 7 8 9 8 7 5 5 9 11 11 11 11 9 9 11 11 12 14 16 16 17 19 20 20 20 20 18 19 18 14 12 12 11 14 14 11 12 18 19 14 11 10 9 12 14 10 7 5 7 7 10 16 23 26 30 38 44 45 44 41 40 40 39 38 34 31 27 22 21 20 17 17 20 24
Wind_Direction
328 326 325 324 323 322 321 320 319 317 315 312 310 308 306 304 303 302 302 302 301 300 298 298 296 295 292 288 284 277 272 270 271 275 266 241 229 219 214 216 217 219 217 213 211 209 209 208 205 205 202 202 201 198 199 200 199 199 193 180 162 148 138 133 135 130 106 4 263 190 188 188 178 173 172 166 163 166 163 163 163 164 175 176 171 184 194 184
334 332 332 331 330 330 328 327 325 323 321 318 315 312 309 307 304 301 300 299 297 295 295 295 294 295 293 289 284 278 275 270 271 280 255 243 238 228 217 218 220 221 219 216 215 213 212 212 208 205 204 205 202 203 206 205 203 200 191 183 167 150 142 131 130 128 108 46 144 175 187 188 183 187 178 167 169 175 172 168 172 172 176 181 175 185 202 192
341 340 339 338 337 336 334 333 331 329 327 325 322 319 316 312 309 305 301 297 293 291 291 291 291 291 291 289 285 279 277 272 265 236 248 252 246 236 222 220 222 223 222 218 219 218 214 217 215 209 206 206 205 207 209 209 208 198 191 186 167 150 142 127 126 125 120 136 164 169 175 180 184 188 182 175 180 188 182 162 168 184 184 184 183 187 200 197
344 343 342 341 340 338 337 336 334 333 331 330 327 324 323 320 317 312 306 300 294 289 287 287 287 288 288 286 284 281 277 275 264 230 247 259 245 235 226 223 222 219 219 215 213 210 207 211 214 212 209 207 206 208 211 212 206 199 193 178 162 151 143 135 137 142 127 136 168 184 180 184 183 176 181 183 181 195 192 163 120 182 193 193 190 188 196 197
342 339 339 338 338 338 338 337 335 334 333 332 330 329 328 326 324 318 312 305 299 293 287 284 283 283 283 282 282 281 277 277 268 238 243 247 235 233 225 221 219 216 217 214 210 205 202 203 207 209 209 208 207 208 211 211 208 202 184 167 164 161 159 151 145 151 142 143 169 191 187 190 183 172 183 178 121 84 138 158 101 139 187 204 201 192 191 195
336 333 333 332 333 334 335 336 335 334 334 334 333 332 332 331 328 324 319 312 306 299 290 284 281 279 278 278 277 275 273 271 258 241 239 236 230 232 226 216 213 215 216 215 213 209 205 203 203 207 208 208 208 209 208 209 211 204 180 172 170 165 169 165 154 155 159 162 166 158 151 214 206 185 187 168 113 81 107 128 131 139 170 203 211 201 189 190
334 331 329 329 330 330 330 332 333 333 334 334 334 333 333 334 332 329 325 319 312 304 296 288 281 277 274 273 273 269 266 260 252 245 242 235 229 232 229 215 207 211 216 216 215 213 210 208 205 206 208 209 208 207 206 209 212 204 184 176 168 163 169 171 165 161 169 179 180 187 223 269 284 223 201 154 157 160 129 133 152 151 164 191 208 208 191 189
333 331 328 327 327 327 327 327 328 328 330 333 334 331 331 333 332 330 328 324 318 309 301 293 284 278 272 269 268 265 260 256 255 247 235 234 233 234 231 218 206 207 215 218 219 220 218 215 210 207 208 209 206 203 205 210 213 202 182 175 171 167 169 174 173 168 175 187 201 212 233 274 313 275 239 151 185 183 161 167 173 168 173 182 197 204 195 192
330 329 327 326 324 324 325 325 324 322 323 328 330 328 328 331 330 328 328 325 321 314 306 297 289 280 273 268 265 262 256 253 255 246 233 233 233 232 229 220 209 206 210 214 218 221 222 222 218 213 211 209 204 202 205 210 211 197 179 180 181 170 169 179 179 178 185 194 211 221 231 257 281 261 239 219 234 208 178 185 182 180 180 177 185 191 193 194
327 327 326 325 323 323 322 323 322 319 318 320 323 322 323 327 327 328 328 325 322 317 309 301 293 284 275 269 264 261 255 250 250 243 232 231 230 227 222 215 210 209 208 210 215 219 221 225 226 223 219 212 206 203 206 210 209 196 187 191 187 177 179 189 188 186 194 201 215 224 228 243 252 250 241 225 233 216 193 192 184 185 184 178 178 180 187 194
327 326 326 324 323 323 322 322 321 318 316 315 316 315 317 323 324 327 328 325 324 318 310 303 295 289 280 270 265 260 252 246 243 237 229 227 227 223 217 209 207 210 209 209 215 221 223 223 223 224 220 215 209 207 209 210 207 202 202 198 190 190 190 193 196 191 200 207 211 225 232 241 243 243 243 235 237 216 200 198 185 187 190 187 181 178 184 192
331 328 327 325 324 324 324 324 322 320 319 315 313 310 313 317 318 323 326 326 324 315 309 304 298 292 283 275 268 257 245 239 237 233 229 226 224 222 213 203 200 207 211 212 217 220 223 222 220 221 218 217 211 210 213 209 205 209 211 204 198 206 202 195 198 195 205 209 207 233 239 237 236 235 235 237 242 229 214 209 195 197 201 197 189 184 184 189
335 332 329 328 327 328 328 326 324 323 322 320 314 310 311 312 313 317 321 324 320 312 309 305 301 295 287 282 270 253 241 239 236 230 227 223 221 218 211 198 192 198 203 206 217 223 226 225 225 224 220 219 213 212 213 207 208 211 214 214 211 220 212 197 198 200 207 211 208 234 237 231 226 223 228 235 239 236 229 219 208 208 211 208 199 191 188 189
336 332 330 329 329 330 330 327 326 326 325 323 317 312 312 312 311 313 317 319 314 310 311 309 305 298 291 286 264 247 235 232 229 224 222 218 215 213 206 198 189 189 193 191 199 214 222 223 226 224 219 219 215 214 211 207 212 213 216 222 222 231 216 195 200 208 208 212 215 233 240 234 219 214 223 230 235 239 237 230 223 218 216 216 211 200 194 192
336 333 330 329 329 331 330 329 329 329 327 324 318 314 315 314 312 314 316 315 310 311 316 313 308 302 295 282 259 244 228 223 221 218 215 210 210 209 203 199 191 187 189 187 188 197 206 216 222 221 217 215 215 215 210 209 215 214 217 222 223 231 214 192 201 212 210 216 222 230 239 235 219 217 225 230 235 238 242 240 236 230 221 220 221 212 200 195
334 332 330 328 328 330 330 329 331 331 330 326 320 317 317 317 315 316 317 314 311 316 319 315 309 301 292 277 257 239 224 220 217 213 210 205 207 207 200 197 194 188 188 190 188 189 197 208 218 222 220 215 213 212 208 209 214 214 216 217 221 226 214 201 205 210 211 221 231 231 235 236 227 224 230 237 239 237 242 241 239 238 229 225 226 220 206 198
332 330 328 327 326 328 328 327 327 329 329 328 324 319 319 320 318 320 321 316 316 322 322 316 309 294 279 272 255 231 220 218 217 210 205 204 204 206 201 195 194 190 188 192 192 192 196 204 211 216 219 216 211 208 208 211 210 209 213 215 218 219 217 214 207 208 216 226 239 239 236 238 236 232 234 238 238 237 240 238 237 238 234 231 230 225 213 205
329 327 326 324 323 324 324 322 322 323 325 327 325 321 322 323 323 326 324 319 322 327 326 318 316 305 274 271 256 230 219 217 216 208 203 203 203 206 205 197 196 193 190 193 198 198 199 205 210 214 218 215 210 207 207 210 207 204 208 213 215 215 217 217 207 207 217 227 242 245 239 238 237 237 240 241 240 240 241 239 237 237 236 236 234 229 219 212
326 324 323 321 320 320 320 319 320 321 322 324 323 322 323 324 325 328 327 329 331 333 335 328 329 333 300 282 266 241 223 216 215 208 203 203 200 202 204 199 198 200 197 196 200 201 202 205 209 213 216 213 208 206 207 209 207 205 208 213 217 217 218 216 209 206 216 237 251 250 247 241 236 236 238 242 244 244 242 240 240 240 239 240 239 234 224 219
324 321 319 318 318 319 320 320 321 321 321 321 321 321 321 321 322 322 323 343 344 336 337 331 327 326 309 297 280 259 234 218 214 209 205 204 200 200 202 200 198 201 203 203 203 203 204 208 211 213 214 210 207 206 208 209 207 206 209 214 219 223 223 219 214 213 224 251 256 255 258 250 241 238 238 241 243 242 239 236 239 240 240 239 240 236 227 223
324 321 320 320 321 321 322 322 322 323 321 321 321 321 323 325 328 326 316 333 350 335 325 323 322 320 315 314 303 284 253 224 214 209 208 207 203 201 202 202 200 201 204 205 205 205 207 214 217 216 215 212 209 209 211 212 210 209 207 209 217 224 226 222 220 220 227 248 253 254 256 252 246 243 241 241 241 241 239 238 239 239 239 237 236 235 230 224
327 325 324 324 325 322 322 323 323 324 322 321 322 323 325 327 330 330 318 317 337 332 306 296 311 316 315 321 323 314 276 229 213 210 210 208 207 206 205 205 205 207 205 202 202 205 210 218 221 218 217 215 213 212 213 214 216 217 214 215 220 222 226 224 222 221 223 240 250 250 250 250 248 246 244 243 244 246 246 246 248 248 246 239 233 231 228 223
331 330 328 329 328 324 323 324 324 324 322 321 322 322 323 324 325 327 319 313 320 323 298 280 295 306 309 321 332 329 296 226 205 207 211 210 209 209 208 209 210 210 208 204 203 204 210 221 223 218 217 217 216 214 214 216 220 222 222 225 226 221 224 225 222 224 227 236 246 250 254 252 248 245 243 245 248 251 252 253 255 257 257 251 242 236 229 227
336 336 333 332 331 327 325 325 326 324 322 321 321 319 318 320 323 323 315 311 315 316 298 283 293 305 310 325 338 338 299 213 198 202 209 210 209 209 210 210 211 211 210 208 207 209 213 221 225 220 217 217 217 216 214 217 221 224 224 226 227 222 222 225 224 228 231 236 243 247 257 257 247 241 242 244 246 248 249 249 250 254 256 254 248 243 237 234
339 339 336 333 331 328 324 326 327 324 323 323 320 317 317 318 321 317 313 315 316 307 293 293 304 314 318 333 346 338 271 212 199 200 208 210 207 208 209 208 211 213 212 209 209 214 218 220 227 226 220 217 218 218 216 216 221 226 226 225 228 227 227 229 229 236 242 241 239 236 247 256 246 241 243 243 243 245 245 245 247 251 252 249 243 241 238 236
338 339 335 329 327 326 325 326 327 326 325 324 320 317 317 320 321 317 316 316 311 291 281 290 305 318 318 328 347 337 263 211 201 203 210 214 209 207 207 207 211 214 211 209 211 218 220 218 219 229 225 220 217 220 219 216 220 228 227 224 228 232 234 234 234 244 251 243 233 219 226 258 253 244 244 245 245 247 246 246 249 249 248 247 243 241 239 235
338 338 335 328 326 326 325 325 327 328 326 324 321 318 319 322 322 320 320 318 309 293 279 289 306 323 325 323 341 353 332 228 213 214 219 220 215 210 208 207 211 215 212 210 216 222 221 217 213 207 223 222 218 219 219 216 220 227 228 225 229 235 237 236 238 245 249 249 244 227 225 265 262 246 240 244 247 246 245 247 249 248 247 248 245 243 241 237
339 338 335 331 330 332 331 329 329 329 326 325 323 321 322 324 321 320 330 346 308 297 291 298 303 318 330 320 323 350 351 321 264 248 246 230 220 216 214 209 209 215 215 213 218 222 222 220 214 202 208 220 220 222 221 216 219 226 230 232 233 235 239 240 243 249 253 261 258 244 237 254 262 247 238 239 244 242 242 245 248 248 249 249 246 244 243 239
339 339 336 333 334 337 338 333 329 327 324 324 325 321 320 320 315 311 326 161 292 299 305 308 304 312 318 297 295 300 308 322 315 291 275 245 225 220 219 216 210 212 219 222 224 224 225 226 220 211 213 220 222 225 224 220 220 223 225 235 236 235 240 243 245 251 254 258 255 249 242 239 257 247 238 235 239 237 239 243 247 249 249 248 245 244 242 239
341 340 337 335 335 338 339 333 326 323 320 324 326 319 317 314 306 302 145 257 296 305 306 307 310 313 310 291 278 267 266 297 314 310 286 252 229 219 219 220 215 210 214 223 229 229 229 233 229 223 221 222 222 225 226 225 226 225 222 223 233 236 238 241 245 249 252 248 245 247 245 240 253 248 239 234 234 235 237 240 244 247 247 247 245 243 243 237
342 341 338 335 333 335 336 329 322 318 317 323 327 320 317 307 291 205 156 277 298 305 306 314 321 320 321 318 301 286 280 279 297 317 289 240 224 214 213 217 218 216 216 219 226 230 229 230 231 231 229 226 225 226 227 228 229 227 223 221 227 229 229 235 239 236 233 243 244 246 246 239 240 243 238 233 232 234 238 241 242 245 245 245 243 241 240 234
343 342 338 333 329 331 332 328 324 321 319 324 332 326 310 289 261 197 279 292 307 319 323 332 335 335 334 330 321 313 312 305 314 355 16 315 208 193 189 199 210 213 217 221 223 227 228 227 226 231 235 230 226 227 227 227 227 224 218 213 215 212 209 221 224 224 231 248 244 245 245 236 241 245 240 234 233 232 235 240 242 245 245 240 236 234 232 229
343 342 338 332 328 328 329 327 328 330 327 327 338 326 286 251 191 253 323 329 319 325 332 338 342 343 337 331 328 325 326 331 331 3 27 30 138 144 145 168 200 208 214 219 222 225 229 229 226 225 229 228 225 224 222 222 223 220 213 207 204 184 178 216 212 238 254 249 243 245 246 240 246 250 241 233 230 229 231 238 242 245 243 238 235 233 231 228
343 341 337 332 327 326 327 326 328 333 329 324 334 307 257 211 111 348 5 357 327 329 336 338 341 340 339 345 345 337 337 349 343 349 6 21 133 112 137 164 176 201 209 207 210 218 223 225 223 221 222 224 224 224 224 224 224 223 217 212 211 205 197 209 198 219 249 251 244 241 237 224 238 248 243 233 228 229 231 235 241 245 243 243 248 247 242 236
343 339 337 335 329 327 326 324 325 331 326 318 325 285 222 135 47 357 11 359 343 345 338 335 336 335 347 358 349 349 354 356 348 344 354 24 101 74 87 137 112 170 193 193 206 219 224 224 218 216 216 217 222 225 228 225 223 225 220 213 215 215 211 213 226 235 245 259 238 230 227 226 246 256 249 237 232 233 234 235 238 242 244 251 259 255 248 242
343 338 338 339 332 327 323 317 316 321 317 311 327 96 142 118 32 350 354 351 351 343 331 333 335 338 359 357 341 350 356 353 355 352 356 25 63 56 50 61 58 79 155 176 197 229 247 230 214 210 213 213 216 220 223 223 219 218 214 212 217 219 217 219 244 254 246 247 234 229 237 243 247 257 252 241 236 234 234 237 238 240 244 250 254 253 249 244
344 341 340 339 334 329 322 311 306 304 292 292 356 108 126 126 341 304 300 321 333 328 332 343 343 342 356 353 342 343 343 346 359 5 6 3 24 31 29 51 61 53 65 84 130 8 306 242 212 199 206 210 214 218 220 224 223 216 212 215 217 217 220 222 233 248 231 237 240 227 237 238 227 242 247 242 239 235 232 235 237 241 244 246 248 249 248 245
346 345 341 339 336 333 326 313 303 291 262 254 148 133 136 135 304 285 282 298 298 310 332 350 357 347 339 345 347 339 338 347 359 9 23 8 9 16 5 20 56 48 46 42 34 353 325 263 224 209 205 206 210 215 218 221 226 226 225 224 214 202 208 213 217 232 221 232 268 232 240 237 224 231 239 239 240 237 234 232 234 239 241 243 247 247 246 246
347 344 339 340 338 335 330 318 305 285 253 244 188 162 162 156 265 286 285 291 293 317 349 352 356 349 335 338 341 336 340 350 356 3 12 0 344 314 334 340 347 20 24 16 354 342 352 308 240 222 214 209 208 212 215 216 220 226 231 230 219 212 210 208 213 221 216 215 247 243 251 242 235 238 240 241 242 239 236 234 233 236 238 239 243 247 247 245
345 344 341 342 342 340 336 326 309 288 248 230 204 192 200 196 186 315 297 273 267 283 351 356 351 343 335 331 327 331 340 341 345 356 0 346 330 298 306 309 294 315 340 353 343 320 330 332 264 230 214 208 204 206 213 216 213 216 221 219 215 218 217 213 219 223 222 221 198 214 256 246 244 247 244 244 246 243 239 236 236 236 236 234 237 245 246 238
343 347 346 346 348 347 345 335 314 296 266 232 215 209 219 224 220 267 251 185 239 270 278 327 330 321 323 329 331 330 333 333 333 345 356 342 328 310 301 307 309 307 309 319 323 317 326 327 284 256 232 215 202 195 203 210 207 209 214 214 214 218 214 209 218 221 222 229 229 220 270 255 246 246 247 243 241 242 240 237 238 239 237 235 237 244 242 233
344 348 349 351 354 353 351 346 321 299 275 235 222 220 231 240 241 247 233 201 238 277 277 292 304 307 306 315 336 333 327 329 312 309 340 344 339 326 312 314 316 310 310 314 314 316 329 325 285 269 258 231 201 184 190 203 207 209 210 210 213 219 218 216 217 216 217 225 236 241 265 261 247 237 240 238 229 234 237 236 238 239 238 237 239 242 243 238
347 348 348 352 357 359 358 357 336 295 265 237 234 236 243 253 255 258 262 257 263 276 276 276 280 284 285 290 311 317 319 316 279 281 321 329 335 335 324 324 322 316 313 308 304 314 329 336 302 278 267 241 214 205 217 221 215 216 213 207 208 215 222 226 233 230 217 215 224 230 254 257 248 235 230 232 224 222 224 229 233 233 232 233 235 238 240 242
349 350 349 352 356 359 1 3 354 315 276 250 249 249 253 264 264 262 268 270 268 265 259 253 244 244 260 281 290 301 315 312 271 283 308 313 321 328 326 325 322 321 320 302 288 289 283 314 320 309 289 251 233 232 241 236 222 215 211 202 206 213 221 228 235 238 231 222 217 211 239 251 246 238 233 230 225 222 220 228 235 236 237 236 236 236 234 237
351 352 352 352 354 357 357 358 354 334 304 278 270 261 259 267 267 260 259 260 257 246 240 238 238 246 260 273 281 289 298 295 278 285 296 300 311 316 318 322 317 317 323 305 284 283 271 266 286 300 232 228 231 228 267 278 256 229 210 196 200 210 221 231 236 235 240 235 221 217 238 246 240 234 231 223 222 225 223 230 236 237 240 239 238 238 236 234
351 355 355 353 353 353 350 347 341 333 317 300 296 284 274 274 269 259 249 242 237 231 235 245 251 260 267 268 275 283 284 283 277 274 282 293 302 304 309 319 319 313 314 300 276 273 265 258 267 267 250 247 257 269 299 314 296 268 241 213 206 214 228 240 242 232 236 242 232 231 243 250 246 240 236 231 230 231 232 235 234 230 230 229 231 242 248 242
351 354 356 355 354 349 345 339 330 327 317 303 301 294 292 292 278 261 247 239 233 227 236 252 257 263 272 275 283 289 285 284 284 279 282 290 291 292 297 307 315 314 313 306 282 265 256 255 260 266 265 264 269 274 284 300 294 286 274 245 228 233 250 256 244 229 228 241 243 240 245 253 255 252 249 249 250 249 249 249 245 238 236 237 243 257 267 255
350 352 354 355 353 346 340 333 323 318 308 300 300 294 298 301 290 278 252 237 236 237 242 252 258 264 275 285 289 291 290 291 294 291 286 287 286 285 289 297 306 310 312 309 291 264 249 255 256 259 264 264 265 272 284 292 287 284 279 264 257 264 267 259 246 230 227 234 240 242 246 251 255 257 258 261 262 262 261 262 261 258 258 259 259 264 270 254
350 352 353 352 350 347 340 329 319 316 301 288 292 292 294 293 288 291 276 249 252 265 262 259 261 265 273 282 285 288 292 293 292 290 288 292 293 290 289 292 296 301 306 305 293 262 249 256 257 257 261 259 257 267 282 285 280 274 267 271 290 287 269 256 246 232 231 236 237 239 245 248 251 257 262 265 267 270 272 274 274 271 266 264 265 268 263 242
350 353 351 347 347 349 343 327 320 323 308 287 287 290 292 292 289 290 289 280 279 282 274 268 270 271 273 278 283 285 285 280 279 283 288 289 287 286 286 285 284 288 295 297 286 254 245 246 242 249 258 256 252 257 266 268 272 271 260 264 298 292 272 261 250 236 235 239 235 236 243 247 249 254 260 263 266 271 274 275 275 273 270 269 268 261 246 230
353 354 349 344 347 352 344 327 330 327 317 306 298 293 292 292 291 292 290 288 293 293 283 276 274 272 272 277 280 278 274 273 274 277 280 279 277 277 274 272 274 277 281 287 281 253 241 241 236 244 262 258 243 241 255 258 261 262 253 258 286 281 265 257 245 235 235 234 231 233 240 246 248 252 257 260 264 268 271 274 275 274 275 274 266 250 231 221
353 351 344 341 349 357 347 327 334 329 324 329 321 311 305 297 297 302 296 288 299 298 293 290 286 285 289 291 286 282 281 283 282 280 277 274 271 269 265 261 264 266 269 276 273 256 244 245 243 244 265 257 239 238 262 268 256 242 232 239 266 253 222 216 222 230 230 226 226 231 237 243 247 251 254 257 261 264 268 275 276 277 279 269 248 228 215 211
Height
3139 3138 3137 3136 3135 3134 3133 3132 3131 3130 3130 3129 3128 3127 3126 3126 3125 3125 3125 3125 3124 3123 3122 3122 3122 3122 3122 3122 3122 3122 3122 3122 3122 3123 3123 3123 3122 3123 3125 3126 3127 3128 3129 3131 3132 3134 3136 3138 3140 3142 3145 3146 3148 3149 3149 3150 3151 3152 3152 3152 3152 3152 3153 3153 3153 3154 3154 3154 3155 3155 3156 3157 3158 3159 3159 3159 3160 3161 3161 3162 3162 3162 3164 3166 3167 3169 3171 3172
3138 3137 3136 3135 3134 3133 3132 3131 3130 3129 3128 3127 3126 3125 3125 3124 3124 3123 3123 3123 3122 3121 3121 3120 3120 3120 3121 3121 3121 3121 3121 3121 3121 3122 3121 3121 3121 3122 3123 3124 3126 3127 3128 3130 3132 3134 3136 3138 3139 3142 3144 3146 3147 3148 3148 3149 3150 3151 3151 3152 3152 3153 3153 3153 3154 3154 3154 3155 3155 3156 3156 3158 3159 3159 3159 3160 3160 3161 3161 3161 3162 3163 3164 3165 3166 3169 3171 3172
3138 3136 3135 3134 3133 3132 3131 3130 3129 3128 3127 3126 3125 3124 3123 3123 3122 3122 3121 3121 3121 3120 3119 3119 3118 3119 3119 3119 3119 3119 3120 3120 3121 3121 3119 3119 3121 3121 3122 3123 3124 3127 3129 3131 3133 3135 3137 3139 3140 3141 3143 3145 3146 3147 3147 3149 3150 3151 3151 3152 3152 3153 3153 3154 3154 3155 3155 3154 3156 3157 3157 3158 3159 3160 3160 3160 3161 3161 3161 3162 3163 3163 3164 3165 3166 3168 3170 3172
3137 3136 3135 3134 3132 3131 3130 3129 3128 3126 3125 3124 3123 3123 3122 3121 3121 3120 3119 3119 3118 3118 3117 3117 3116 3117 3117 3117 3118 3118 3118 3118 3119 3119 3117 3118 3120 3120 3120 3121 3123 3126 3128 3129 3130 3133 3135 3136 3138 3140 3142 3143 3144 3145 3146 3147 3149 3150 3151 3152 3152 3153 3153 3154 3154 3155 3155 3155 3156 3157 3157 3158 3158 3160 3160 3160 3161 3161 3162 3163 3164 3164 3164 3165 3166 3168 3169 3171
3137 3135 3134 3133 3132 3131 3129 3128 3127 3125 3124 3123 3122 3121 3121 3120 3119 3118 3117 3116 3116 3116 3115 3115 3114 3115 3115 3115 3116 3116 3117 3117 3117 3117 3116 3117 3117 3118 3118 3120 3122 3124 3125 3126 3127 3129 3131 3132 3135 3137 3139 3140 3142 3142 3144 3147 3148 3149 3150 3151 3152 3153 3153 3154 3154 3155 3155 3155 3156 3157 3158 3158 3159 3160 3160 3161 3161 3162 3162 3164 3164 3164 3165 3166 3167 3168 3169 3171
3136 3135 3134 3132 3131 3130 3129 3128 3126 3125 3123 3122 3121 3120 3119 3119 3117 3116 3115 3114 3114 3113 3113 3112 3112 3113 3113 3113 3114 3115 3115 3115 3115 3115 3115 3115 3116 3116 3116 3118 3120 3122 3123 3124 3126 3127 3128 3129 3131 3133 3135 3138 3139 3141 3144 3146 3147 3148 3149 3151 3151 3152 3153 3154 3154 3154 3155 3156 3157 3158 3158 3159 3160 3160 3160 3161 3162 3163 3163 3164 3165 3165 3165 3167 3168 3169 3169 3171
3136 3134 3133 3132 3130 3129 3128 3127 3125 3124 3123 3121 3120 3119 3118 3117 3116 3115 3114 3113 3112 3111 3110 3110 3110 3110 3111 3111 3112 3113 3114 3114 3113 3114 3114 3114 3114 3114 3115 3116 3118 3120 3121 3122 3123 3125 3126 3127 3129 3131 3134 3136 3138 3142 3144 3145 3146 3148 3149 3150 3151 3152 3153 3153 3154 3154 3155 3155 3157 3158 3158 3159 3160 3160 3161 3162 3162 3163 3163 3164 3165 3165 3165 3166 3168 3169 3170 3172
3135 3134 3132 3131 3129 3128 3127 3126 3124 3123 3122 3121 3119 3118 3117 3116 3115 3114 3112 3111 3110 3109 3108 3108 3107 3108 3108 3109 3109 3110 3112 3111 3111 3113 3114 3113 3113 3114 3114 3115 3116 3118 3120 3122 3124 3125 3126 3127 3128 3131 3132 3135 3139 3142 3144 3145 3146 3147 3149 3150 3151 3152 3152 3153 3153 3154 3155 3155 3156 3157 3158 3159 3160 3160 3161 3162 3162 3163 3163 3163 3164 3165 3166 3166 3167 3169 3171 3173
3134 3132 3131 3129 3128 3127 3126 3124 3123 3122 3121 3120 3118 3117 3115 3115 3113 3112 3111 3110 3108 3107 3106 3105 3105 3105 3105 3106 3107 3108 3110 3110 3110 3111 3112 3111 3111 3112 3113 3114 3115 3116 3118 3121 3123 3124 3125 3127 3129 3131 3132 3135 3139 3141 3143 3143 3144 3147 3149 3150 3150 3151 3152 3152 3153 3154 3154 3155 3156 3156 3157 3159 3160 3160 3160 3161 3162 3162 3163 3163 3164 3165 3166 3167 3167 3169 3171 3173
3133 3131 3130 3128 3127 3126 3124 3123 3122 3120 3119 3118 3117 3115 3114 3113 3112 3111 3110 3108 3107 3106 3104 3103 3103 3103 3103 3103 3104 3105 3107 3107 3108 3108 3109 3109 3109 3110 3111 3113 3114 3116 3117 3120 3121 3122 3125 3128 3130 3132 3134 3137 3139 3140 3141 3141 3143 3146 3148 3149 3149 3150 3150 3151 3151 3152 3153 3154 3155 3155 3157 3159 3159 3159 3159 3161 3161 3162 3163 3163 3164 3165 3166 3167 3167 3169 3171 3173
3132 3130 3129 3127 3125 3124 3123 3122 3121 3119 3118 3117 3116 3113 3112 3112 3110 3109 3108 3106 3105 3104 3102 3101 3100 3100 3100 3101 3102 3103 3104 3105 3105 3106 3106 3107 3107 3108 3110 3112 3113 3115 3117 3118 3120 3123 3125 3128 3130 3131 3133 3135 3137 3138 3138 3140 3143 3145 3146 3147 3148 3148 3149 3149 3150 3151 3152 3153 3153 3155 3157 3159 3158 3158 3158 3160 3161 3161 3163 3163 3164 3164 3166 3167 3168 3169 3170 3172
3131 3129 3127 3125 3124 3123 3122 3121 3119 3118 3116 3115 3114 3112 3111 3110 3108 3108 3106 3105 3103 3101 3100 3099 3099 3098 3098 3099 3099 3099 3101 3101 3102 3103 3104 3104 3106 3107 3109 3110 3112 3115 3117 3119 3122 3124 3126 3127 3128 3129 3131 3133 3135 3137 3137 3139 3143 3143 3144 3145 3146 3147 3147 3147 3149 3150 3151 3151 3153 3155 3156 3156 3155 3155 3158 3159 3160 3161 3162 3163 3163 3164 3165 3166 3167 3169 3170 3171
3130 3128 3126 3124 3123 3122 3120 3119 3118 3116 3115 3114 3112 3110 3109 3108 3107 3106 3105 3103 3101 3099 3098 3097 3097 3096 3095 3097 3096 3096 3097 3099 3100 3101 3101 3102 3104 3106 3108 3109 3111 3114 3116 3119 3122 3124 3125 3126 3127 3128 3130 3131 3133 3135 3136 3138 3140 3141 3142 3143 3144 3145 3145 3146 3148 3149 3150 3150 3152 3154 3152 3151 3152 3154 3157 3158 3158 3160 3161 3162 3163 3163 3164 3165 3167 3168 3169 3170
3129 3126 3124 3122 3121 3120 3119 3117 3116 3115 3113 3112 3110 3108 3107 3106 3105 3104 3103 3101 3098 3097 3096 3095 3094 3093 3093 3095 3093 3093 3095 3096 3096 3097 3098 3100 3102 3103 3106 3107 3108 3111 3113 3116 3119 3121 3122 3124 3125 3126 3128 3129 3131 3133 3135 3137 3137 3139 3141 3141 3142 3142 3143 3146 3148 3148 3149 3150 3151 3152 3150 3148 3151 3154 3156 3157 3158 3159 3160 3161 3162 3162 3163 3164 3166 3167 3168 3170
3127 3125 3123 3121 3119 3118 3117 3115 3114 3113 3111 3110 3108 3106 3105 3104 3103 3102 3101 3098 3096 3094 3094 3093 3092 3091 3091 3091 3090 3090 3092 3092 3092 3094 3096 3098 3099 3101 3104 3106 3107 3109 3112 3114 3115 3117 3119 3121 3122 3123 3125 3127 3129 3131 3133 3135 3135 3137 3138 3138 3139 3140 3142 3145 3146 3146 3148 3149 3150 3151 3148 3147 3151 3153 3155 3156 3157 3158 3159 3160 3161 3161 3162 3163 3165 3167 3168 3169
3126 3124 3121 3119 3118 3116 3115 3113 3112 3111 3109 3108 3105 3103 3103 3102 3101 3100 3099 3096 3093 3092 3092 3090 3090 3089 3088 3088 3087 3088 3089 3089 3090 3092 3094 3096 3097 3099 3102 3104 3106 3107 3110 3112 3113 3115 3116 3118 3119 3121 3123 3124 3126 3128 3131 3132 3132 3134 3135 3136 3137 3139 3141 3143 3144 3145 3147 3148 3148 3148 3147 3147 3150 3152 3153 3155 3156 3157 3158 3159 3159 3160 3161 3162 3164 3166 3167 3168
3124 3122 3120 3117 3116 3114 3113 3111 3110 3109 3107 3106 3104 3101 3100 3100 3099 3098 3096 3093 3091 3090 3090 3088 3088 3087 3086 3085 3084 3085 3085 3086 3088 3090 3092 3094 3095 3097 3099 3101 3104 3105 3107 3109 3111 3112 3114 3115 3116 3118 3119 3121 3123 3126 3128 3127 3127 3129 3132 3134 3135 3137 3140 3141 3143 3145 3146 3147 3147 3147 3146 3146 3148 3150 3152 3154 3155 3156 3156 3157 3158 3159 3160 3162 3163 3164 3166 3167
3123 3121 3118 3116 3114 3112 3111 3109 3107 3106 3104 3103 3102 3100 3098 3098 3097 3096 3095 3092 3090 3089 3088 3087 3086 3084 3083 3082 3082 3082 3083 3084 3086 3088 3090 3092 3094 3096 3098 3100 3103 3103 3105 3107 3108 3110 3111 3112 3113 3115 3115 3116 3119 3120 3120 3120 3122 3126 3129 3131 3134 3136 3137 3138 3141 3143 3145 3145 3145 3146 3145 3145 3147 3149 3151 3152 3154 3154 3155 3156 3157 3157 3159 3160 3162 3163 3164 3165
3121 3119 3117 3114 3112 3110 3108 3106 3105 3103 3102 3101 3099 3098 3096 3096 3095 3094 3094 3091 3089 3088 3087 3085 3084 3083 3083 3081 3080 3080 3081 3083 3084 3086 3088 3090 3092 3095 3096 3098 3101 3102 3102 3103 3104 3106 3108 3109 3109 3109 3108 3109 3112 3114 3116 3119 3124 3127 3129 3131 3133 3134 3135 3136 3139 3142 3143 3144 3143 3143 3143 3144 3146 3147 3149 3151 3152 3153 3154 3155 3155 3156 3157 3159 3160 3162 3163 3164
3119 3117 3115 3113 3110 3108 3106 3104 3102 3100 3099 3098 3097 3096 3095 3094 3093 3093 3093 3091 3088 3087 3086 3085 3084 3083 3082 3080 3079 3078 3080 3082 3083 3085 3086 3088 3090 3092 3094 3095 3097 3099 3099 3100 3102 3103 3105 3105 3102 3100 3101 3106 3111 3114 3117 3121 3125 3127 3128 3130 3132 3133 3133 3135 3138 3140 3142 3142 3141 3142 3142 3143 3144 3145 3147 3149 3150 3151 3152 3152 3153 3154 3155 3157 3158 3160 3161 3163
3117 3115 3113 3111 3108 3105 3103 3101 3099 3098 3096 3094 3094 3093 3092 3092 3091 3090 3090 3090 3088 3086 3086 3085 3083 3082 3080 3079 3078 3077 3078 3080 3082 3083 3084 3086 3088 3089 3091 3092 3092 3093 3095 3099 3101 3102 3103 3099 3095 3097 3102 3108 3112 3115 3118 3120 3123 3125 3127 3128 3130 3131 3131 3134 3136 3138 3141 3140 3139 3141 3141 3141 3142 3143 3145 3147 3148 3148 3149 3150 3151 3152 3153 3155 3157 3158 3160 3162
3115 3113 3111 3109 3106 3103 3101 3099 3097 3096 3094 3092 3091 3090 3090 3089 3089 3088 3087 3087 3087 3086 3085 3084 3082 3081 3079 3078 3077 3076 3076 3078 3081 3082 3082 3084 3086 3087 3088 3089 3089 3090 3094 3097 3097 3098 3098 3092 3092 3099 3105 3109 3112 3115 3117 3119 3121 3123 3125 3126 3127 3128 3130 3132 3134 3137 3139 3139 3138 3139 3139 3138 3140 3141 3142 3143 3144 3146 3147 3148 3150 3151 3152 3153 3155 3156 3159 3161
3113 3110 3108 3106 3104 3101 3099 3097 3096 3094 3092 3091 3089 3088 3088 3088 3088 3087 3086 3085 3085 3084 3083 3082 3082 3080 3078 3077 3077 3076 3075 3077 3079 3079 3080 3081 3083 3085 3086 3086 3088 3090 3091 3091 3091 3092 3091 3088 3093 3100 3104 3107 3111 3113 3115 3118 3119 3121 3123 3124 3124 3126 3130 3131 3133 3136 3137 3137 3137 3137 3137 3136 3138 3139 3139 3140 3141 3144 3146 3147 3149 3150 3151 3152 3154 3155 3157 3159
3111 3109 3106 3104 3102 3099 3097 3095 3094 3092 3091 3089 3088 3087 3086 3086 3086 3085 3084 3083 3083 3083 3081 3081 3081 3079 3077 3076 3076 3076 3075 3075 3076 3076 3077 3078 3080 3082 3082 3084 3087 3087 3087 3088 3089 3088 3087 3089 3094 3099 3102 3106 3109 3111 3113 3115 3116 3118 3119 3120 3121 3125 3128 3130 3133 3134 3135 3136 3135 3136 3135 3133 3135 3136 3136 3137 3139 3141 3143 3145 3146 3147 3148 3151 3153 3154 3156 3158
3109 3107 3104 3102 3100 3098 3095 3094 3093 3091 3090 3089 3087 3086 3085 3085 3084 3084 3083 3082 3082 3082 3081 3080 3080 3079 3077 3076 3076 3075 3074 3074 3074 3074 3074 3075 3076 3077 3079 3082 3084 3084 3085 3088 3090 3088 3088 3092 3095 3098 3101 3103 3106 3108 3110 3112 3114 3116 3116 3118 3121 3124 3127 3129 3132 3133 3134 3134 3134 3136 3134 3130 3131 3133 3133 3134 3136 3137 3139 3141 3142 3144 3146 3148 3150 3152 3154 3156
3107 3105 3103 3099 3098 3096 3094 3093 3091 3090 3089 3088 3087 3085 3084 3084 3083 3082 3081 3080 3080 3080 3080 3079 3079 3078 3077 3076 3075 3074 3073 3073 3072 3072 3072 3072 3073 3074 3076 3079 3080 3082 3085 3088 3090 3087 3088 3093 3096 3097 3099 3101 3104 3106 3108 3111 3114 3113 3113 3117 3121 3123 3126 3128 3130 3132 3132 3131 3132 3134 3133 3129 3128 3129 3130 3132 3133 3134 3136 3137 3138 3141 3143 3145 3147 3149 3151 3153
3105 3103 3101 3097 3095 3095 3093 3091 3090 3089 3088 3087 3086 3084 3084 3083 3082 3081 3081 3080 3079 3079 3079 3078 3078 3077 3075 3075 3075 3073 3073 3073 3072 3071 3070 3070 3072 3073 3074 3076 3078 3081 3084 3088 3087 3083 3086 3091 3094 3095 3097 3099 3100 3101 3104 3109 3111 3110 3111 3117 3120 3122 3125 3127 3129 3130 3129 3129 3129 3130 3131 3129 3125 3124 3128 3130 3129 3130 3132 3133 3134 3137 3139 3141 3144 3147 3149 3151
3104 3101 3099 3096 3094 3093 3091 3089 3088 3087 3086 3085 3084 3083 3083 3082 3081 3081 3081 3081 3079 3078 3078 3078 3077 3076 3075 3074 3074 3074 3073 3072 3071 3070 3069 3069 3071 3072 3073 3075 3077 3079 3082 3083 3081 3081 3085 3087 3090 3093 3095 3095 3095 3097 3102 3107 3108 3108 3112 3117 3119 3122 3124 3126 3128 3128 3128 3129 3125 3124 3129 3128 3122 3121 3125 3127 3126 3126 3127 3129 3131 3134 3136 3138 3141 3143 3146 3149
3102 3100 3097 3095 3093 3091 3088 3086 3085 3084 3084 3083 3083 3082 3081 3081 3081 3080 3081 3081 3079 3077 3077 3077 3076 3075 3074 3074 3074 3074 3073 3071 3070 3069 3068 3068 3069 3071 3073 3074 3076 3078 3080 3080 3079 3081 3084 3085 3089 3093 3092 3090 3093 3097 3101 3104 3105 3107 3113 3116 3118 3121 3122 3125 3126 3126 3129 3126 3119 3120 3125 3126 3121 3118 3121 3123 3121 3122 3124 3126 3129 3131 3133 3136 3138 3140 3143 3146
3101 3098 3096 3093 3091 3088 3087 3085 3083 3082 3081 3081 3081 3080 3080 3080 3079 3080 3081 3080 3078 3077 3076 3076 3075 3074 3073 3073 3073 3073 3072 3071 3070 3068 3067 3067 3068 3070 3071 3072 3075 3076 3077 3078 3079 3081 3084 3086 3089 3089 3088 3090 3094 3097 3099 3102 3104 3108 3112 3115 3118 3120 3121 3123 3124 3125 3127 3118 3113 3117 3121 3124 3120 3113 3115 3117 3117 3119 3122 3124 3126 3128 3130 3133 3135 3138 3140 3143
3099 3097 3094 3091 3088 3086 3085 3084 3083 3081 3080 3080 3080 3079 3079 3079 3078 3079 3080 3078 3077 3076 3075 3074 3074 3073 3072 3072 3071 3071 3071 3070 3069 3068 3067 3066 3067 3068 3069 3071 3073 3075 3076 3076 3077 3079 3082 3084 3085 3086 3088 3092 3095 3097 3098 3101 3104 3107 3110 3114 3117 3118 3119 3121 3121 3123 3120 3110 3109 3116 3119 3122 3115 3107 3110 3114 3115 3119 3121 3122 3124 3126 3128 3130 3132 3135 3138 3141
3098 3095 3092 3089 3086 3083 3082 3082 3081 3080 3079 3078 3078 3077 3077 3077 3077 3078 3078 3077 3077 3075 3074 3073 3073 3072 3071 3071 3070 3070 3070 3070 3069 3067 3066 3066 3066 3066 3067 3068 3069 3071 3072 3073 3074 3076 3077 3079 3082 3085 3087 3090 3092 3095 3097 3099 3101 3104 3108 3111 3114 3115 3117 3118 3116 3115 3110 3106 3110 3115 3117 3115 3107 3103 3108 3111 3113 3116 3118 3120 3122 3124 3126 3128 3130 3132 3135 3138
3096 3093 3091 3088 3084 3082 3080 3079 3079 3078 3077 3076 3076 3076 3076 3076 3076 3077 3076 3077 3077 3075 3074 3073 3072 3072 3071 3070 3070 3070 3070 3069 3069 3068 3068 3067 3066 3065 3065 3066 3066 3067 3068 3070 3072 3074 3075 3077 3080 3083 3085 3086 3088 3090 3092 3095 3098 3100 3103 3106 3108 3110 3113 3114 3112 3110 3107 3106 3109 3113 3115 3109 3101 3101 3105 3107 3110 3113 3116 3118 3120 3122 3123 3125 3127 3130 3132 3135
3095 3092 3089 3086 3083 3081 3079 3078 3077 3077 3076 3075 3075 3076 3075 3075 3075 3075 3075 3076 3075 3074 3073 3073 3072 3072 3071 3070 3069 3069 3069 3069 3068 3068 3068 3067 3066 3065 3065 3065 3065 3065 3067 3069 3070 3071 3072 3072 3074 3078 3081 3083 3085 3086 3088 3092 3096 3097 3099 3103 3104 3104 3106 3108 3108 3107 3106 3106 3108 3110 3109 3101 3097 3099 3101 3105 3109 3111 3114 3117 3118 3119 3120 3122 3125 3127 3129 3132
3093 3090 3088 3084 3081 3079 3078 3077 3076 3076 3075 3074 3074 3075 3075 3075 3075 3075 3075 3074 3074 3073 3073 3072 3071 3071 3071 3070 3069 3069 3069 3069 3068 3068 3067 3066 3066 3066 3065 3064 3064 3065 3066 3067 3068 3069 3068 3067 3069 3073 3077 3080 3083 3085 3088 3091 3092 3093 3097 3100 3098 3098 3102 3104 3105 3104 3104 3105 3103 3102 3099 3095 3096 3097 3099 3104 3107 3109 3113 3115 3116 3117 3118 3121 3122 3123 3125 3128
3093 3089 3086 3083 3081 3079 3077 3076 3075 3075 3074 3073 3072 3073 3073 3074 3074 3074 3073 3073 3073 3072 3072 3071 3071 3070 3070 3070 3069 3069 3069 3069 3068 3068 3067 3066 3066 3066 3065 3065 3065 3065 3065 3066 3067 3067 3066 3064 3067 3071 3074 3078 3080 3081 3084 3086 3087 3090 3092 3092 3092 3096 3101 3103 3103 3102 3104 3102 3097 3095 3094 3094 3097 3096 3097 3102 3104 3107 3111 3112 3114 3115 3116 3119 3119 3120 3122 3124
3091 3088 3084 3082 3080 3078 3076 3075 3074 3073 3073 3072 3072 3072 3073 3073 3073 3073 3072 3072 3072 3072 3071 3070 3070 3069 3069 3069 3069 3068 3068 3068 3068 3068 3067 3066 3066 3066 3065 3065 3065 3065 3065 3065 3066 3067 3065 3063 3065 3069 3071 3074 3076 3078 3080 3083 3085 3087 3087 3088 3093 3098 3101 3102 3102 3101 3101 3099 3094 3092 3092 3092 3094 3093 3094 3098 3101 3103 3107 3110 3112 3113 3115 3117 3117 3119 3120 3121
3088 3085 3082 3080 3078 3076 3075 3073 3072 3072 3072 3071 3071 3072 3072 3072 3072 3072 3072 3071 3071 3071 3070 3070 3070 3069 3069 3069 3069 3068 3068 3068 3068 3068 3067 3066 3066 3066 3065 3065 3066 3065 3066 3066 3066 3067 3065 3063 3064 3066 3068 3069 3073 3076 3078 3080 3083 3084 3085 3087 3092 3094 3094 3096 3098 3096 3097 3097 3093 3091 3090 3089 3089 3089 3091 3095 3097 3101 3105 3108 3110 3111 3112 3114 3115 3117 3118 3120
3086 3083 3080 3078 3076 3074 3072 3071 3070 3070 3070 3071 3071 3071 3071 3071 3072 3072 3071 3071 3071 3070 3069 3069 3069 3069 3069 3069 3069 3068 3068 3068 3068 3068 3067 3067 3066 3065 3065 3065 3065 3065 3066 3066 3066 3066 3066 3065 3063 3063 3065 3067 3070 3073 3075 3077 3080 3083 3085 3086 3088 3088 3089 3090 3091 3090 3093 3094 3092 3090 3088 3084 3084 3087 3090 3092 3095 3099 3102 3105 3107 3109 3111 3112 3113 3115 3116 3118
3085 3083 3079 3076 3074 3072 3070 3069 3068 3069 3069 3070 3070 3070 3070 3070 3071 3071 3071 3070 3070 3069 3069 3069 3068 3069 3068 3068 3068 3068 3068 3068 3068 3068 3067 3066 3065 3064 3064 3064 3064 3065 3065 3065 3065 3065 3065 3066 3063 3061 3063 3066 3067 3070 3072 3075 3078 3080 3081 3082 3084 3086 3086 3088 3088 3087 3090 3091 3089 3089 3086 3081 3082 3086 3088 3091 3093 3096 3099 3102 3104 3107 3109 3111 3112 3113 3114 3116
3084 3082 3079 3076 3073 3071 3069 3068 3068 3068 3069 3069 3069 3069 3069 3070 3070 3070 3070 3070 3069 3069 3069 3068 3068 3068 3068 3068 3068 3068 3068 3067 3067 3067 3066 3065 3065 3064 3063 3063 3062 3063 3063 3064 3064 3064 3064 3065 3063 3061 3062 3063 3065 3067 3070 3072 3074 3075 3077 3079 3081 3083 3084 3085 3085 3084 3086 3086 3085 3086 3083 3077 3081 3086 3086 3089 3092 3093 3097 3099 3101 3104 3107 3109 3110 3111 3112 3114
3081 3080 3078 3076 3073 3071 3069 3068 3067 3067 3068 3068 3069 3069 3069 3069 3069 3069 3069 3069 3069 3068 3068 3068 3067 3068 3068 3068 3068 3067 3067 3067 3066 3066 3065 3065 3064 3063 3062 3062 3061 3061 3062 3062 3063 3063 3063 3063 3062 3060 3060 3061 3063 3065 3067 3068 3070 3071 3073 3076 3078 3080 3081 3081 3080 3080 3083 3083 3082 3085 3080 3072 3078 3085 3086 3088 3090 3091 3094 3097 3099 3102 3104 3106 3109 3110 3111 3112
3080 3078 3077 3075 3073 3071 3070 3068 3067 3067 3068 3068 3068 3068 3068 3067 3068 3068 3068 3068 3068 3068 3067 3067 3067 3067 3067 3067 3067 3067 3066 3066 3065 3065 3064 3064 3063 3062 3061 3060 3060 3060 3061 3061 3061 3062 3062 3062 3062 3060 3059 3060 3063 3065 3066 3066 3068 3069 3070 3072 3074 3076 3076 3076 3076 3078 3079 3078 3080 3084 3077 3067 3073 3082 3084 3087 3089 3090 3092 3094 3097 3099 3101 3104 3106 3108 3109 3110
3079 3077 3075 3074 3073 3071 3070 3069 3068 3067 3067 3067 3067 3067 3067 3066 3067 3067 3067 3067 3067 3067 3066 3066 3066 3066 3066 3066 3066 3066 3065 3065 3064 3063 3063 3063 3062 3061 3061 3060 3059 3059 3060 3060 3060 3061 3062 3062 3062 3061 3062 3062 3063 3063 3064 3064 3064 3065 3067 3069 3070 3072 3073 3073 3074 3076 3075 3073 3076 3078 3070 3063 3070 3079 3082 3085 3087 3088 3090 3092 3094 3096 3099 3101 3103 3106 3108 3109
3079 3076 3074 3072 3071 3070 3069 3068 3067 3067 3066 3066 3066 3066 3066 3065 3065 3066 3066 3066 3066 3066 3065 3065 3065 3065 3065 3066 3065 3065 3064 3064 3063 3062 3062 3062 3061 3060 3060 3059 3058 3058 3059 3059 3058 3059 3061 3061 3062 3063 3064 3063 3060 3061 3062 3062 3062 3062 3064 3066 3067 3069 3070 3070 3073 3074 3071 3069 3072 3070 3063 3063 3071 3076 3079 3083 3085 3086 3088 3090 3091 3093 3095 3097 3100 3102 3105 3106
3077 3076 3073 3071 3069 3068 3068 3067 3066 3066 3065 3065 3064 3064 3064 3064 3064 3064 3064 3065 3065 3064 3064 3064 3064 3064 3064 3064 3064 3064 3063 3062 3062 3061 3061 3060 3060 3059 3058 3058 3057 3057 3058 3058 3057 3057 3058 3059 3060 3061 3062 3061 3059 3059 3062 3063 3061 3060 3061 3062 3064 3066 3067 3068 3070 3068 3067 3068 3068 3065 3062 3064 3069 3073 3076 3080 3082 3083 3085 3086 3088 3089 3091 3093 3095 3097 3100 3102
3076 3074 3073 3071 3069 3067 3066 3066 3065 3065 3064 3064 3063 3063 3063 3063 3063 3063 3063 3063 3063 3063 3063 3063 3063 3063 3062 3062 3062 3062 3061 3061 3060 3060 3060 3059 3058 3058 3057 3057 3056 3056 3056 3056 3056 3056 3056 3057 3058 3059 3059 3059 3059 3059 3062 3063 3061 3060 3059 3059 3061 3063 3065 3065 3064 3064 3066 3067 3063 3062 3065 3063 3060 3066 3074 3077 3079 3082 3082 3084 3085 3086 3087 3089 3090 3092 3093 3095
3075 3073 3072 3071 3069 3067 3066 3065 3064 3063 3063 3063 3063 3062 3062 3062 3062 3062 3062 3062 3062 3062 3062 3062 3062 3061 3061 3060 3060 3059 3059 3058 3058 3058 3058 3057 3057 3056 3055 3055 3055 3054 3054 3054 3054 3055 3055 3055 3056 3057 3057 3058 3058 3058 3061 3062 3060 3059 3059 3058 3059 3060 3061 3060 3059 3061 3063 3061 3059 3063 3067 3061 3055 3060 3069 3073 3075 3078 3079 3081 3082 3083 3083 3084 3085 3085 3086 3087
3074 3073 3071 3070 3069 3067 3065 3064 3063 3062 3062 3062 3062 3062 3061 3061 3061 3061 3061 3061 3061 3061 3060 3060 3060 3060 3059 3059 3058 3058 3057 3056 3056 3056 3056 3055 3055 3054 3054 3053 3053 3053 3053 3053 3053 3053 3053 3053 3055 3055 3055 3055 3057 3058 3060 3060 3059 3058 3058 3059 3058 3057 3057 3056 3057 3059 3059 3058 3059 3064 3063 3058 3055 3059 3065 3068 3071 3073 3074 3076 3077 3078 3079 3079 3079 3079 3079 3080
3074 3072 3071 3069 3068 3066 3064 3063 3063 3062 3062 3062 3061 3061 3061 3060 3060 3060 3060 3060 3060 3059 3059 3058 3058 3058 3058 3057 3056 3056 3056 3055 3054 3054 3054 3053 3052 3052 3052 3051 3051 3051 3051 3052 3052 3052 3052 3053 3053 3054 3053 3053 3055 3058 3058 3058 3057 3056 3057 3058 3057 3055 3054 3054 3055 3057 3057 3056 3059 3062 3058 3054 3056 3060 3063 3064 3066 3068 3070 3071 3072 3073 3073 3073 3072 3072 3073 3074
3074 3072 3070 3068 3067 3065 3063 3062 3062 3062 3061 3061 3061 3061 3060 3060 3060 3059 3059 3059 3058 3058 3057 3057 3056 3056 3056 3055 3055 3054 3054 3053 3052 3052 3051 3051 3050 3050 3050 3049 3049 3049 3049 3050 3051 3050 3051 3051 3052 3053 3052 3051 3053 3056 3056 3056 3056 3056 3056 3057 3055 3053 3052 3052 3052 3053 3052 3054 3057 3058 3055 3052 3055 3059 3061 3061 3063 3065 3066 3067 3067 3068 3068 3068 3067 3067 3068 3071
3074 3072 3070 3068 3066 3064 3063 3062 3062 3061 3061 3061 3060 3060 3059 3059 3058 3058 3058 3058 3057 3056 3055 3055 3054 3054 3054 3054 3053 3053 3052 3051 3050 3049 3049 3048 3047 3047 3047 3046 3047 3047 3047 3048 3049 3049 3050 3050 3050 3052 3051 3049 3051 3054 3053 3054 3054 3053 3054 3054 3053 3052 3050 3049 3049 3049 3048 3051 3054 3054 3052 3053 3055 3057 3058 3059 3061 3062 3063 3063 3064 3064 3064 3064 3064 3065 3066 3069